| time (UTC) | temp F | wind direction | speed knots | gust knots | rain 1hr in | rain 24hr in | rain mn in | humidity % | barometer mb |
| 20260505194554 | 58 | 276 | 3.5 | 8.7 | 0.00 | 0.00 | 0.00 | 82 | 1016.2 |
| 20260505194049 | 57 | 235 | 3.5 | 7.0 | 0.00 | 0.00 | 0.00 | 82 | 1016.1 |
| 20260505193550 | 58 | 249 | 2.6 | 8.7 | 0.00 | 0.00 | 0.00 | 82 | 1016.2 |
| 20260505193053 | 57 | 199 | 2.6 | 8.7 | 0.00 | 0.00 | 0.00 | 83 | 1016.2 |
| 20260505192549 | 57 | 242 | 6.1 | 8.7 | 0.00 | 0.00 | 0.00 | 82 | 1016.1 |
| 20260505192049 | 57 | 229 | 5.2 | 8.7 | 0.00 | 0.00 | 0.00 | 82 | 1016.2 |
| 20260505191550 | 57 | 249 | 3.5 | 8.7 | 0.00 | 0.00 | 0.00 | 82 | 1016.1 |
| 20260505191049 | 57 | 247 | 5.2 | 8.7 | 0.00 | 0.00 | 0.00 | 82 | 1016.1 |
| 20260505190552 | 57 | 237 | 4.3 | 8.7 | 0.00 | 0.00 | 0.00 | 83 | 1016.1 |
| 20260505190108 | 57 | 214 | 4.3 | 8.7 | 0.00 | 0.00 | 0.00 | 82 | 1016.1 |
| 20260505185549 | 57 | 204 | 5.2 | 8.7 | 0.00 | 0.00 | 0.00 | 83 | 1016.0 |
| 20260505185050 | 57 | 202 | 3.5 | 8.7 | 0.00 | 0.00 | 0.00 | 83 | 1016.1 |
| 20260505184550 | 56 | 202 | 5.2 | 8.7 | 0.00 | 0.00 | 0.00 | 83 | 1016.1 |
| 20260505184050 | 56 | 248 | 4.3 | 8.7 | 0.00 | 0.00 | 0.00 | 83 | 1016.1 |
| 20260505183549 | 56 | 246 | 5.2 | 8.7 | 0.00 | 0.00 | 0.00 | 83 | 1016.1 |
| 20260505183053 | 56 | 258 | 4.3 | 7.8 | 0.00 | 0.00 | 0.00 | 83 | 1016.1 |
| 20260505182549 | 56 | 239 | 3.5 | 7.0 | 0.00 | 0.00 | 0.00 | 84 | 1016.1 |
| 20260505182049 | 56 | 258 | 2.6 | 7.0 | 0.00 | 0.00 | 0.00 | 84 | 1016.0 |
| 20260505181634 | 56 | 239 | 3.5 | 7.0 | 0.00 | 0.00 | 0.00 | 83 | 1016.0 |
| 20260505181053 | 56 | 251 | 2.6 | 6.1 | 0.00 | 0.00 | 0.00 | 85 | 1016.1 |
| 20260505180549 | 56 | 249 | 1.7 | 6.1 | 0.00 | 0.00 | 0.00 | 85 | 1016.1 |
| 20260505175549 | 55 | 214 | 3.5 | 7.0 | 0.00 | 0.00 | 0.00 | 85 | 1016.0 |
| 20260505175049 | 56 | 211 | 2.6 | 5.2 | 0.00 | 0.00 | 0.00 | 84 | 1016.0 |
| 20260505174553 | 56 | 251 | 2.6 | 5.2 | 0.00 | 0.00 | 0.00 | 85 | 1016.0 |
| 20260505174050 | 56 | 229 | 2.6 | 5.2 | 0.00 | 0.00 | 0.00 | 85 | 1016.1 |
| 20260505173549 | 56 | 234 | 1.7 | 5.2 | 0.00 | 0.00 | 0.00 | 86 | 1016.0 |
| 20260505173058 | 55 | 251 | 0.9 | 3.5 | 0.00 | 0.00 | 0.00 | 86 | 1016.0 |
| 20260505172549 | 55 | 253 | 1.7 | 4.3 | 0.00 | 0.00 | 0.00 | 85 | 1015.9 |
| 20260505172050 | 55 | 233 | 1.7 | 5.2 | 0.00 | 0.00 | 0.00 | 85 | 1015.9 |
| 20260505171601 | 55 | 233 | 1.7 | 5.2 | 0.00 | 0.00 | 0.00 | 86 | 1015.8 |
| 20260505171050 | 55 | 253 | 1.7 | 3.5 | 0.00 | 0.00 | 0.00 | 86 | 1015.9 |
| 20260505170549 | 55 | 241 | 1.7 | 3.5 | 0.00 | 0.00 | 0.00 | 86 | 1015.9 |
| 20260505170053 | 55 | 251 | 1.7 | 5.2 | 0.00 | 0.00 | 0.00 | 86 | 1015.8 |
| 20260505165549 | 55 | 260 | 2.6 | 5.2 | 0.00 | 0.00 | 0.00 | 86 | 1015.7 |
| 20260505165049 | 55 | 258 | 2.6 | 4.3 | 0.00 | 0.00 | 0.00 | 85 | 1015.8 |
| 20260505164558 | 55 | 264 | 1.7 | 4.3 | 0.00 | 0.00 | 0.00 | 86 | 1015.7 |
| 20260505164049 | 55 | 272 | 1.7 | 3.5 | 0.00 | 0.00 | 0.00 | 86 | 1015.7 |
| 20260505163550 | 55 | 243 | 1.7 | 4.3 | 0.00 | 0.00 | 0.00 | 86 | 1015.7 |
| 20260505163051 | 55 | 239 | 1.7 | 4.3 | 0.00 | 0.00 | 0.00 | 86 | 1015.7 |
| 20260505162549 | 55 | 243 | 2.6 | 4.3 | 0.00 | 0.00 | 0.00 | 85 | 1015.7 |
| 20260505162050 | 55 | 226 | 2.6 | 4.3 | 0.00 | 0.00 | 0.00 | 86 | 1015.6 |
| 20260505161553 | 55 | 216 | 1.7 | 3.5 | 0.00 | 0.00 | 0.00 | 86 | 1015.6 |
| 20260505161049 | 55 | 233 | 1.7 | 5.2 | 0.00 | 0.00 | 0.00 | 86 | 1015.6 |
| 20260505160550 | 54 | 264 | 2.6 | 5.2 | 0.00 | 0.00 | 0.00 | 86 | 1015.6 |
| 20260505153056 | 54 | 226 | 2.6 | 5.2 | 0.00 | 0.00 | 0.00 | 87 | 1015.5 |
| 20260505152550 | 54 | 249 | 2.6 | 5.2 | 0.00 | 0.00 | 0.00 | 86 | 1015.5 |
| 20260505152049 | 54 | 244 | 3.5 | 7.8 | 0.00 | 0.00 | 0.00 | 87 | 1015.4 |
| 20260505151556 | 54 | 254 | 2.6 | 7.8 | 0.00 | 0.00 | 0.00 | 86 | 1015.5 |
| 20260505151054 | 54 | 226 | 3.5 | 7.8 | 0.00 | 0.00 | 0.00 | 86 | 1015.4 |
| 20260505150549 | 54 | 241 | 2.6 | 8.7 | 0.00 | 0.00 | 0.00 | 86 | 1015.3 |
| 20260505140549 | 54 | 224 | 2.6 | 7.8 | 0.00 | 0.00 | 0.00 | 87 | 1014.8 |
| 20260505124557 | 54 | 219 | 2.6 | 7.0 | 0.00 | 0.00 | 0.00 | 87 | 1014.1 |
| 20260505124049 | 54 | 251 | 3.5 | 8.7 | 0.00 | 0.00 | 0.00 | 87 | 1014.1 |
| 20260505123549 | 54 | 222 | 3.5 | 8.7 | 0.00 | 0.00 | 0.00 | 87 | 1014.1 |
| 20260505123058 | 54 | 233 | 3.5 | 8.7 | 0.00 | 0.00 | 0.00 | 87 | 1014.0 |
| 20260505122548 | 54 | 243 | 3.5 | 9.6 | 0.00 | 0.00 | 0.00 | 87 | 1014.0 |
| 20260505122050 | 54 | 192 | 5.2 | 10.4 | 0.00 | 0.00 | 0.00 | 87 | 1014.0 |
| 20260505121556 | 54 | 193 | 5.2 | 10.4 | 0.00 | 0.00 | 0.00 | 87 | 1013.9 |
| 20260505121050 | 54 | 218 | 4.3 | 8.7 | 0.00 | 0.00 | 0.00 | 87 | 1013.9 |
| 20260505120550 | 54 | 239 | 4.3 | 7.8 | 0.00 | 0.00 | 0.00 | 87 | 1013.9 |
| 20260505120119 | 54 | 216 | 4.3 | 7.8 | 0.00 | 0.00 | 0.00 | 87 | 1013.8 |
| 20260505115549 | 54 | 244 | 4.3 | 8.7 | 0.00 | 0.00 | 0.00 | 87 | 1013.9 |
| 20260505115049 | 54 | 220 | 3.5 | 9.6 | 0.00 | 0.00 | 0.00 | 87 | 1013.8 |
| 20260505114555 | 54 | 249 | 3.5 | 9.6 | 0.00 | 0.00 | 0.00 | 87 | 1013.7 |
| 20260505114049 | 54 | 185 | 4.3 | 9.6 | 0.00 | 0.00 | 0.00 | 87 | 1013.8 |
| 20260505113553 | 54 | 225 | 4.3 | 8.7 | 0.00 | 0.00 | 0.00 | 87 | 1013.8 |
| 20260505113053 | 54 | 235 | 2.6 | 9.6 | 0.00 | 0.00 | 0.00 | 87 | 1013.7 |
| 20260505112548 | 54 | 230 | 5.2 | 10.4 | 0.00 | 0.00 | 0.00 | 87 | 1013.7 |
| 20260505112046 | 54 | 214 | 6.1 | 10.4 | 0.00 | 0.00 | 0.00 | 87 | 1013.8 |
| 20260505111553 | 54 | 239 | 5.2 | 9.6 | 0.00 | 0.00 | 0.00 | 87 | 1013.7 |
| 20260505111048 | 54 | 227 | 5.2 | 9.6 | 0.00 | 0.00 | 0.00 | 88 | 1013.6 |
| 20260505110550 | 54 | 244 | 5.2 | 11.3 | 0.00 | 0.00 | 0.00 | 88 | 1013.6 |
| 20260505110113 | 54 | 237 | 6.1 | 11.3 | 0.00 | 0.00 | 0.00 | 88 | 1013.5 |
| 20260505102050 | 53 | 210 | 6.1 | 12.2 | 0.00 | 0.00 | 0.00 | 88 | 1013.3 |
| 20260505101551 | 53 | 206 | 7.0 | 12.2 | 0.00 | 0.00 | 0.00 | 88 | 1013.3 |
| 20260505101048 | 53 | 219 | 5.2 | 12.2 | 0.00 | 0.00 | 0.00 | 88 | 1013.2 |
| 20260505100548 | 53 | 229 | 6.1 | 12.2 | 0.00 | 0.00 | 0.00 | 88 | 1013.1 |
| 20260505100053 | 53 | 243 | 6.1 | 12.2 | 0.00 | 0.00 | 0.00 | 89 | 1013.1 |
| 20260505095548 | 53 | 238 | 7.8 | 12.2 | 0.00 | 0.00 | 0.00 | 89 | 1013.0 |
| 20260505095046 | 53 | 234 | 7.0 | 12.2 | 0.00 | 0.00 | 0.00 | 89 | 1013.0 |
| 20260505094550 | 53 | 212 | 8.7 | 12.2 | 0.00 | 0.00 | 0.00 | 88 | 1013.1 |
| 20260505094048 | 53 | 236 | 7.0 | 11.3 | 0.00 | 0.00 | 0.00 | 89 | 1013.0 |
| 20260505093549 | 53 | 224 | 7.0 | 11.3 | 0.00 | 0.00 | 0.00 | 89 | 1012.8 |
| 20260505093052 | 53 | 249 | 6.1 | 12.2 | 0.00 | 0.00 | 0.00 | 89 | 1012.8 |
| 20260505092548 | 53 | 226 | 7.0 | 14.8 | 0.00 | 0.00 | 0.00 | 89 | 1012.8 |
| 20260505092047 | 53 | 212 | 7.8 | 14.8 | 0.00 | 0.00 | 0.00 | 89 | 1012.8 |
| 20260505091556 | 53 | 215 | 9.6 | 13.9 | 0.00 | 0.00 | 0.00 | 89 | 1012.8 |
| 20260505091046 | 53 | 207 | 6.1 | 11.3 | 0.00 | 0.00 | 0.00 | 89 | 1012.7 |
| 20260505090548 | 53 | 222 | 6.1 | 12.2 | 0.00 | 0.00 | 0.00 | 89 | 1012.7 |
| 20260505090056 | 53 | 234 | 7.8 | 12.2 | 0.00 | 0.00 | 0.00 | 89 | 1012.7 |
| 20260505085549 | 53 | 236 | 6.1 | 12.2 | 0.00 | 0.00 | 0.00 | 89 | 1012.7 |
| 20260505085049 | 53 | 207 | 7.8 | 13.0 | 0.00 | 0.00 | 0.00 | 89 | 1012.6 |
| 20260505084600 | 53 | 255 | 7.0 | 13.0 | 0.00 | 0.00 | 0.00 | 89 | 1012.6 |
| 20260505084049 | 53 | 214 | 8.7 | 13.0 | 0.00 | 0.00 | 0.00 | 89 | 1012.6 |
| 20260505083548 | 53 | 247 | 5.2 | 11.3 | 0.00 | 0.00 | 0.00 | 89 | 1012.6 |
| 20260505083105 | 53 | 249 | 7.8 | 11.3 | 0.00 | 0.00 | 0.00 | 89 | 1012.7 |
| 20260505082552 | 53 | 221 | 6.1 | 11.3 | 0.00 | 0.00 | 0.00 | 89 | 1012.6 |
| 20260505082048 | 53 | 209 | 7.0 | 11.3 | 0.00 | 0.00 | 0.00 | 89 | 1012.7 |
| 20260505081556 | 53 | 180 | 4.3 | 9.6 | 0.00 | 0.00 | 0.00 | 89 | 1012.7 |
| 20260505081048 | 53 | 244 | 5.2 | 10.4 | 0.00 | 0.00 | 0.00 | 89 | 1012.6 |
| 20260505080548 | 53 | 206 | 6.1 | 10.4 | 0.00 | 0.00 | 0.00 | 89 | 1012.6 |
| 20260505080055 | 53 | 215 | 5.2 | 7.8 | 0.00 | 0.00 | 0.00 | 89 | 1012.7 |
| 20260505075551 | 53 | 199 | 3.5 | 9.6 | 0.00 | 0.00 | 0.00 | 89 | 1012.6 |
| 20260505075047 | 53 | 234 | 4.3 | 9.6 | 0.00 | 0.00 | 0.00 | 88 | 1012.5 |
| 20260505074556 | 53 | 220 | 6.1 | 9.6 | 0.00 | 0.00 | 0.00 | 88 | 1012.5 |
| 20260505074048 | 53 | 247 | 6.1 | 8.7 | 0.00 | 0.00 | 0.00 | 88 | 1012.5 |
| 20260505073548 | 53 | 212 | 4.3 | 7.8 | 0.00 | 0.00 | 0.00 | 88 | 1012.4 |
| 20260505073058 | 53 | 229 | 5.2 | 7.8 | 0.00 | 0.00 | 0.00 | 88 | 1012.4 |
| 20260505072551 | 53 | 216 | 4.3 | 9.6 | 0.00 | 0.00 | 0.00 | 88 | 1012.4 |
| 20260505072048 | 54 | 204 | 6.1 | 9.6 | 0.00 | 0.00 | 0.00 | 88 | 1012.3 |
| 20260505071548 | 54 | 190 | 5.2 | 9.6 | 0.00 | 0.00 | 0.00 | 88 | 1012.3 |
| 20260505071048 | 54 | 212 | 5.2 | 9.6 | 0.00 | 0.00 | 0.00 | 87 | 1012.1 |
| 20260505070548 | 54 | 231 | 4.3 | 10.4 | 0.00 | 0.00 | 0.00 | 87 | 1012.1 |
| 20260505070100 | 54 | 241 | 4.3 | 10.4 | 0.00 | 0.00 | 0.00 | 87 | 1012.0 |
| 20260505065548 | 54 | 220 | 5.2 | 11.3 | 0.00 | 0.00 | 0.00 | 87 | 1012.0 |
| 20260505065049 | 54 | 222 | 6.1 | 11.3 | 0.00 | 0.00 | 0.00 | 87 | 1011.9 |
| 20260505064631 | 54 | 212 | 7.0 | 10.4 | 0.00 | 0.00 | 0.00 | 87 | 1012.0 |
| 20260505064047 | 54 | 220 | 5.2 | 12.2 | 0.00 | 0.00 | 0.00 | 87 | 1011.9 |
| 20260505063548 | 54 | 237 | 7.0 | 12.2 | 0.00 | 0.00 | 0.00 | 87 | 1011.9 |
| 20260505063058 | 54 | 213 | 7.0 | 12.2 | 0.00 | 0.00 | 0.00 | 87 | 1011.8 |
| 20260505062549 | 54 | 206 | 7.8 | 10.4 | 0.00 | 0.00 | 0.00 | 86 | 1011.8 |
| 20260505062048 | 54 | 222 | 6.1 | 12.2 | 0.00 | 0.00 | 0.00 | 86 | 1011.7 |
| 20260505061555 | 54 | 207 | 6.1 | 12.2 | 0.00 | 0.00 | 0.00 | 86 | 1011.6 |
| 20260505061048 | 54 | 197 | 7.0 | 12.2 | 0.00 | 0.00 | 0.00 | 86 | 1011.5 |
| 20260505060549 | 55 | 201 | 6.1 | 12.2 | 0.00 | 0.00 | 0.00 | 86 | 1011.5 |
| 20260505060056 | 55 | 210 | 6.1 | 12.2 | 0.00 | 0.00 | 0.00 | 86 | 1011.4 |
| 20260505055549 | 55 | 220 | 6.1 | 10.4 | 0.00 | 0.00 | 0.00 | 86 | 1011.5 |
| 20260505055049 | 55 | 208 | 5.2 | 10.4 | 0.00 | 0.00 | 0.00 | 86 | 1011.4 |
| 20260505054554 | 55 | 230 | 6.1 | 10.4 | 0.00 | 0.00 | 0.00 | 85 | 1011.4 |
| 20260505054049 | 55 | 233 | 7.0 | 10.4 | 0.00 | 0.00 | 0.00 | 85 | 1011.4 |
| 20260505053547 | 55 | 191 | 6.1 | 10.4 | 0.00 | 0.00 | 0.00 | 85 | 1011.3 |
| 20260505053052 | 55 | 239 | 7.0 | 10.4 | 0.00 | 0.00 | 0.00 | 85 | 1011.3 |
| 20260505052547 | 55 | 231 | 7.0 | 10.4 | 0.00 | 0.00 | 0.00 | 84 | 1011.2 |
| 20260505052047 | 56 | 231 | 6.1 | 9.6 | 0.00 | 0.00 | 0.00 | 84 | 1011.2 |
| 20260505051554 | 56 | 195 | 5.2 | 10.4 | 0.00 | 0.00 | 0.00 | 83 | 1011.3 |
| 20260505051048 | 56 | 208 | 5.2 | 10.4 | 0.00 | 0.00 | 0.00 | 83 | 1011.2 |
| 20260505050548 | 56 | 212 | 5.2 | 11.3 | 0.00 | 0.00 | 0.00 | 82 | 1011.2 |
| 20260505050106 | 57 | 212 | 4.3 | 11.3 | 0.00 | 0.00 | 0.00 | 82 | 1011.1 |
| 20260505041604 | 60 | 235 | 5.2 | 9.6 | 0.00 | 0.00 | 0.00 | 77 | 1010.5 |
| 20260505041047 | 60 | 213 | 5.2 | 10.4 | 0.00 | 0.00 | 0.00 | 76 | 1010.4 |
| 20260505040549 | 61 | 225 | 6.1 | 10.4 | 0.00 | 0.00 | 0.00 | 75 | 1010.4 |
| 20260505040100 | 61 | 222 | 5.2 | 9.6 | 0.00 | 0.00 | 0.00 | 75 | 1010.2 |
| 20260505035546 | 61 | 255 | 5.2 | 10.4 | 0.00 | 0.00 | 0.00 | 75 | 1010.2 |
| 20260505035048 | 61 | 251 | 5.2 | 10.4 | 0.00 | 0.00 | 0.00 | 74 | 1010.1 |
| 20260505034608 | 62 | 235 | 6.1 | 11.3 | 0.00 | 0.00 | 0.00 | 73 | 1010.1 |
| 20260505034048 | 62 | 265 | 6.1 | 11.3 | 0.00 | 0.00 | 0.00 | 73 | 1010.0 |
| 20260505033548 | 63 | 246 | 7.0 | 13.0 | 0.00 | 0.00 | 0.00 | 72 | 1009.9 |
| 20260505033054 | 63 | 247 | 7.8 | 13.0 | 0.00 | 0.00 | 0.00 | 71 | 1009.9 |
| 20260505032546 | 64 | 240 | 7.8 | 12.2 | 0.00 | 0.00 | 0.00 | 71 | 1009.9 |
| 20260505032047 | 64 | 243 | 7.0 | 12.2 | 0.00 | 0.00 | 0.00 | 70 | 1009.8 |
| 20260505031554 | 64 | 251 | 7.0 | 10.4 | 0.00 | 0.00 | 0.00 | 69 | 1009.7 |
| 20260505031048 | 65 | 264 | 6.1 | 12.2 | 0.00 | 0.00 | 0.00 | 69 | 1009.8 |
| 20260505030552 | 66 | 254 | 7.0 | 12.2 | 0.00 | 0.00 | 0.00 | 68 | 1009.7 |
| 20260505030104 | 66 | 249 | 8.7 | 12.2 | 0.00 | 0.00 | 0.00 | 66 | 1009.6 |
| 20260505025546 | 67 | 256 | 6.1 | 12.2 | 0.00 | 0.00 | 0.00 | 66 | 1009.6 |
| 20260505025046 | 67 | 231 | 5.2 | 12.2 | 0.00 | 0.00 | 0.00 | 65 | 1009.5 |
| 20260505024606 | 68 | 250 | 7.8 | 12.2 | 0.00 | 0.00 | 0.00 | 64 | 1009.5 |
| 20260505024046 | 68 | 246 | 6.1 | 10.4 | 0.00 | 0.00 | 0.00 | 64 | 1009.4 |
| 20260505023545 | 68 | 223 | 6.1 | 10.4 | 0.00 | 0.00 | 0.00 | 63 | 1009.4 |
| 20260505023056 | 69 | 230 | 5.2 | 12.2 | 0.00 | 0.00 | 0.00 | 62 | 1009.4 |
| 20260505022548 | 70 | 261 | 7.8 | 12.2 | 0.00 | 0.00 | 0.00 | 61 | 1009.4 |
| 20260505022048 | 70 | 233 | 5.2 | 12.2 | 0.00 | 0.00 | 0.00 | 59 | 1009.3 |
| 20260505021555 | 71 | 232 | 5.2 | 12.2 | 0.00 | 0.00 | 0.00 | 59 | 1009.4 |
| 20260505021048 | 71 | 238 | 7.0 | 12.2 | 0.00 | 0.00 | 0.00 | 58 | 1009.4 |
| 20260505020548 | 71 | 244 | 6.1 | 11.3 | 0.00 | 0.00 | 0.00 | 58 | 1009.4 |
| 20260505020108 | 72 | 220 | 6.1 | 10.4 | 0.00 | 0.00 | 0.00 | 57 | 1009.3 |
| 20260505015548 | 72 | 262 | 5.2 | 10.4 | 0.00 | 0.00 | 0.00 | 56 | 1009.3 |
| 20260505015050 | 72 | 278 | 4.3 | 8.7 | 0.00 | 0.00 | 0.00 | 56 | 1009.3 |
| 20260505014553 | 73 | 266 | 5.2 | 9.6 | 0.00 | 0.00 | 0.00 | 57 | 1009.3 |
| 20260505014048 | 73 | 245 | 5.2 | 11.3 | 0.00 | 0.00 | 0.00 | 57 | 1009.3 |
| 20260505013548 | 73 | 214 | 7.0 | 11.3 | 0.00 | 0.00 | 0.00 | 56 | 1009.3 |
| 20260505013058 | 73 | 260 | 7.0 | 11.3 | 0.00 | 0.00 | 0.00 | 57 | 1009.2 |
| 20260505012550 | 74 | 267 | 5.2 | 9.6 | 0.00 | 0.00 | 0.00 | 56 | 1009.2 |
| 20260505012048 | 74 | 252 | 5.2 | 8.7 | 0.00 | 0.00 | 0.00 | 57 | 1009.1 |
| 20260505011557 | 74 | 241 | 6.1 | 8.7 | 0.00 | 0.00 | 0.00 | 56 | 1009.2 |
| 20260505011051 | 75 | 257 | 4.3 | 8.7 | 0.00 | 0.00 | 0.00 | 56 | 1009.1 |
| 20260505010548 | 75 | 231 | 6.1 | 8.7 | 0.00 | 0.00 | 0.00 | 55 | 1009.2 |
| 20260505010108 | 75 | 256 | 6.1 | 8.7 | 0.00 | 0.00 | 0.00 | 55 | 1009.3 |
| 20260505005548 | 76 | 245 | 4.3 | 7.8 | 0.00 | 0.00 | 0.00 | 55 | 1009.3 |
| 20260505005048 | 75 | 260 | 2.6 | 9.6 | 0.00 | 0.00 | 0.00 | 54 | 1009.3 |
| 20260505004602 | 75 | 289 | 2.6 | 9.6 | 0.00 | 0.00 | 0.00 | 55 | 1009.3 |
| 20260505004047 | 76 | 264 | 6.1 | 9.6 | 0.00 | 0.00 | 0.00 | 53 | 1009.3 |
| 20260505003547 | 76 | 311 | 3.5 | 9.6 | 0.00 | 0.00 | 0.00 | 53 | 1009.3 |
| 20260505003055 | 76 | 235 | 4.3 | 9.6 | 0.00 | 0.00 | 0.00 | 53 | 1009.3 |
| 20260505002550 | 77 | 241 | 4.3 | 7.8 | 0.00 | 0.00 | 0.00 | 53 | 1009.3 |
| 20260505002047 | 77 | 258 | 3.5 | 8.7 | 0.00 | 0.00 | 0.00 | 54 | 1009.3 |
| 20260505001558 | 76 | 258 | 4.3 | 8.7 | 0.00 | 0.00 | 0.00 | 54 | 1009.3 |
| 20260505001047 | 76 | 200 | 5.2 | 8.7 | 0.00 | 0.00 | 0.00 | 53 | 1009.4 |
| 20260505000548 | 76 | 239 | 3.5 | 8.7 | 0.00 | 0.00 | 0.00 | 52 | 1009.4 |
| 20260505000112 | 76 | 241 | 7.0 | 8.7 | 0.00 | 0.00 | 0.00 | 53 | 1009.3 |
| 20260504235548 | 77 | 249 | 4.3 | 9.6 | 0.00 | 0.00 | 0.00 | 53 | 1009.3 |
| 20260504235048 | 77 | 280 | 4.3 | 9.6 | 0.00 | 0.00 | 0.00 | 52 | 1009.2 |
| 20260504234550 | 77 | 252 | 3.5 | 7.8 | 0.00 | 0.00 | 0.00 | 53 | 1009.3 |
| 20260504234048 | 76 | 243 | 5.2 | 9.6 | 0.00 | 0.00 | 0.00 | 51 | 1009.3 |
| 20260504233548 | 76 | 239 | 5.2 | 9.6 | 0.00 | 0.00 | 0.00 | 53 | 1009.2 |
| 20260504233050 | 76 | 248 | 6.1 | 9.6 | 0.00 | 0.00 | 0.00 | 50 | 1009.3 |
| 20260504232548 | 78 | 235 | 5.2 | 8.7 | 0.00 | 0.00 | 0.00 | 53 | 1009.2 |
| 20260504232047 | 77 | 242 | 5.2 | 9.6 | 0.00 | 0.00 | 0.00 | 50 | 1009.2 |
| 20260504231620 | 77 | 220 | 4.3 | 9.6 | 0.00 | 0.00 | 0.00 | 51 | 1009.3 |
| 20260504231048 | 77 | 278 | 5.2 | 9.6 | 0.00 | 0.00 | 0.00 | 50 | 1009.3 |
| 20260504230547 | 77 | 240 | 3.5 | 8.7 | 0.00 | 0.00 | 0.00 | 49 | 1009.4 |
| 20260504230101 | 77 | 250 | 5.2 | 8.7 | 0.00 | 0.00 | 0.00 | 48 | 1009.5 |
| 20260504225549 | 76 | 244 | 6.1 | 8.7 | 0.00 | 0.00 | 0.00 | 48 | 1009.6 |
| 20260504225051 | 76 | 247 | 4.3 | 8.7 | 0.00 | 0.00 | 0.00 | 46 | 1009.7 |
| 20260504224549 | 76 | 245 | 6.1 | 7.8 | 0.00 | 0.00 | 0.00 | 47 | 1009.8 |
| 20260504224047 | 76 | 256 | 4.3 | 7.8 | 0.00 | 0.00 | 0.00 | 48 | 1009.9 |
| 20260504223548 | 77 | 266 | 2.6 | 7.8 | 0.00 | 0.00 | 0.00 | 45 | 1009.9 |
| 20260504223054 | 77 | 289 | 4.3 | 8.7 | 0.00 | 0.00 | 0.00 | 44 | 1009.9 |
| 20260504222549 | 78 | 308 | 3.5 | 8.7 | 0.00 | 0.00 | 0.00 | 45 | 1009.9 |
| 20260504222048 | 77 | 288 | 3.5 | 7.8 | 0.00 | 0.00 | 0.00 | 45 | 1010.0 |
| 20260504221631 | 77 | 266 | 3.5 | 7.0 | 0.00 | 0.00 | 0.00 | 43 | 1010.0 |
| 20260504221048 | 77 | 234 | 3.5 | 7.8 | 0.00 | 0.00 | 0.00 | 43 | 1010.0 |
| 20260504220548 | 77 | 197 | 2.6 | 9.6 | 0.00 | 0.00 | 0.00 | 45 | 1010.0 |
| 20260504220052 | 76 | 260 | 5.2 | 9.6 | 0.00 | 0.00 | 0.00 | 43 | 1010.0 |
| 20260504215550 | 76 | 252 | 5.2 | 8.7 | 0.00 | 0.00 | 0.00 | 44 | 1010.1 |
| 20260504215047 | 76 | 262 | 3.5 | 8.7 | 0.00 | 0.00 | 0.00 | 47 | 1010.2 |
| 20260504214550 | 75 | 275 | 3.5 | 8.7 | 0.00 | 0.00 | 0.00 | 50 | 1010.1 |
| 20260504214046 | 75 | 273 | 6.1 | 9.6 | 0.00 | 0.00 | 0.00 | 48 | 1010.1 |
| 20260504213548 | 75 | 276 | 4.3 | 9.6 | 0.00 | 0.00 | 0.00 | 48 | 1010.2 |
| 20260504213054 | 75 | 270 | 4.3 | 9.6 | 0.00 | 0.00 | 0.00 | 50 | 1010.2 |
| 20260504212548 | 75 | 281 | 5.2 | 9.6 | 0.00 | 0.00 | 0.00 | 52 | 1010.2 |
| 20260504212049 | 74 | 270 | 4.3 | 8.7 | 0.00 | 0.00 | 0.00 | 56 | 1010.2 |
| 20260504211549 | 74 | 213 | 4.3 | 10.4 | 0.00 | 0.00 | 0.00 | 55 | 1010.2 |
| 20260504211048 | 73 | 262 | 6.1 | 10.4 | 0.00 | 0.00 | 0.00 | 54 | 1010.3 |
| 20260504210548 | 74 | 270 | 4.3 | 7.8 | 0.00 | 0.00 | 0.00 | 55 | 1010.3 |
| 20260504210054 | 73 | 224 | 5.2 | 7.8 | 0.00 | 0.00 | 0.00 | 56 | 1010.3 |
| 20260504205549 | 73 | 240 | 5.2 | 7.8 | 0.00 | 0.00 | 0.00 | 58 | 1010.3 |
| 20260504205049 | 74 | 236 | 3.5 | 7.8 | 0.00 | 0.00 | 0.00 | 57 | 1010.3 |
| 20260504204549 | 74 | 153 | 3.5 | 7.8 | 0.00 | 0.00 | 0.00 | 58 | 1010.4 |
| 20260504204049 | 74 | 200 | 4.3 | 7.8 | 0.00 | 0.00 | 0.00 | 58 | 1010.5 |
| 20260504203550 | 74 | 189 | 3.5 | 7.8 | 0.00 | 0.00 | 0.00 | 62 | 1010.5 |
| 20260504203050 | 73 | 216 | 4.3 | 7.8 | 0.00 | 0.00 | 0.00 | 60 | 1010.4 |
| 20260504202546 | 73 | 189 | 4.3 | 7.8 | 0.00 | 0.00 | 0.00 | 59 | 1010.4 |
| 20260504202049 | 73 | 191 | 3.5 | 7.8 | 0.00 | 0.00 | 0.00 | 60 | 1010.3 |
| 20260504201550 | 73 | 185 | 4.3 | 7.8 | 0.00 | 0.00 | 0.00 | 57 | 1010.4 |
| 20260504201049 | 73 | 215 | 4.3 | 7.8 | 0.00 | 0.00 | 0.00 | 60 | 1010.4 |
| 20260504200548 | 73 | 162 | 3.5 | 7.8 | 0.00 | 0.00 | 0.00 | 62 | 1010.4 |
| 20260504200052 | 72 | 175 | 3.5 | 7.8 | 0.00 | 0.00 | 0.00 | 61 | 1010.6 |
| 20260504195548 | 72 | 199 | 3.5 | 7.8 | 0.00 | 0.00 | 0.00 | 62 | 1010.7 |
| 20260504195048 | 71 | 256 | 4.3 | 8.7 | 0.00 | 0.00 | 0.00 | 60 | 1010.7 |